Theta_e
300 300 300 300 300 300 300 301 301 300 300 300 300 300 300 299 299 300 297 302 297 292 291 291 291 288 288 287 283 286 285 287 285 279 279 280 279 281 280 282 280 279 278 278 279 275 274 291 289 283 289 294 293 295
300 300 299 300 300 300 300 300 300 300 299 299 299 299 299 300 299 299 294 301 301 294 291 295 295 295 293 292 289 288 287 285 287 283 284 283 279 282 281 277 285 279 282 280 281 282 288 290 290 294 292 293 294 294
299 299 299 299 299 299 299 299 298 298 298 298 298 298 299 299 299 298 296 297 298 290 290 291 289 295 298 297 298 286 288 290 288 291 285 284 279 284 279 280 282 285 287 282 283 287 288 290 293 293 292 293 294 295
299 299 299 299 299 299 297 297 297 297 298 297 297 297 298 298 298 298 297 297 297 292 285 288 295 293 298 298 297 296 293 293 292 290 285 284 281 287 282 283 283 285 286 284 283 286 289 290 293 293 293 295 295 296
299 299 299 298 298 297 297 297 297 297 297 297 297 297 297 298 298 299 299 298 299 290 284 287 293 294 295 295 294 295 293 289 288 285 285 283 286 285 286 285 283 287 285 283 283 288 288 289 292 293 292 293 294 294
299 298 298 298 297 297 297 297 297 297 297 297 297 297 298 298 298 294 285 296 297 294 288 282 292 291 293 293 292 291 291 290 288 284 285 287 289 285 281 280 286 288 290 290 287 290 290 291 292 293 292 292 292 293
298 298 298 298 297 297 297 297 297 297 297 297 298 298 298 298 298 292 289 294 297 297 287 282 284 290 291 292 292 291 292 288 288 284 285 285 285 287 283 280 286 288 290 290 292 291 289 291 290 292 293 293 293 293
298 298 298 298 297 297 297 297 296 296 296 296 296 296 296 295 295 292 296 296 298 292 290 281 281 285 291 287 287 292 289 288 288 286 287 284 286 286 280 286 288 289 290 290 291 292 291 293 292 292 293 292 291 291
298 298 298 297 297 297 296 296 296 296 296 296 296 296 296 295 291 292 294 295 298 291 284 282 279 280 290 288 291 290 290 283 289 285 284 285 283 280 284 285 287 288 288 288 290 291 291 290 290 290 290 291 291 290
298 298 297 297 297 297 296 297 296 296 296 295 294 292 284 291 293 295 291 287 286 288 287 282 285 281 286 286 286 286 287 283 280 284 288 282 280 285 286 287 289 290 290 289 286 285 286 286 286 288 290 292 293 292
297 297 297 297 296 296 296 296 296 296 294 294 289 288 293 294 292 289 283 283 284 281 285 284 284 282 288 281 283 287 283 284 278 283 282 280 281 286 289 290 290 289 289 289 289 289 288 287 287 287 290 292 292 292
297 297 297 297 297 296 296 296 296 295 295 292 293 294 293 289 286 282 281 283 281 279 285 283 284 286 287 288 284 286 281 283 276 287 281 279 286 289 290 289 289 290 290 289 289 287 287 287 288 287 288 289 291 289
297 297 297 297 297 296 296 297 296 294 294 296 289 284 283 285 278 277 276 279 280 284 286 286 283 286 286 286 284 284 279 279 287 281 280 284 289 289 290 290 290 291 291 289 286 286 286 287 287 286 286 287 289 289
296 297 297 297 297 297 297 296 295 294 293 286 282 277 279 279 281 283 284 284 288 289 289 288 285 285 287 282 284 279 283 284 278 277 279 287 290 290 290 290 289 288 286 285 284 285 285 285 285 285 285 286 286 287
296 296 296 296 297 296 296 296 295 296 291 284 283 277 280 286 288 289 290 289 290 292 290 286 286 287 284 282 283 281 279 277 280 280 286 291 290 289 287 286 285 285 284 284 285 284 284 285 284 284 284 285 286 286
294 293 294 296 296 296 296 296 294 294 288 285 284 281 286 285 286 288 289 289 292 291 290 287 284 282 281 282 279 278 278 277 283 288 291 292 290 288 286 285 284 284 283 283 283 284 284 284 284 283 284 284 285 286
293 293 296 295 296 296 296 293 288 285 285 283 283 287 288 287 287 289 290 290 293 287 283 285 281 279 285 281 279 284 282 286 290 291 292 291 287 286 284 284 284 283 282 283 282 283 283 284 285 285 281 282 283 284
293 296 295 295 296 294 291 290 286 285 283 285 284 288 290 291 289 290 291 291 287 285 286 283 286 281 280 278 281 287 290 291 292 291 291 287 286 284 283 283 283 282 282 282 282 283 284 283 284 285 284 284 283 283
294 295 296 296 295 291 286 286 287 283 285 288 289 289 290 290 292 292 291 290 290 289 286 285 282 281 283 286 287 288 288 289 288 288 288 285 284 283 283 283 283 283 282 282 282 283 284 283 283 284 285 286 285 285
296 296 295 295 295 287 285 287 290 285 284 287 289 288 288 288 290 289 288 287 286 285 283 282 283 286 287 288 288 287 288 288 287 286 287 287 286 285 285 283 283 283 283 284 284 282 284 285 284 284 284 285 285 284
293 295 295 295 291 288 287 287 286 286 286 285 289 287 285 288 286 285 285 287 283 283 283 287 286 286 287 287 287 286 286 286 285 285 283 283 285 285 284 285 285 284 283 283 282 283 283 283 283 284 284 284 284 284
293 292 289 291 287 286 285 290 287 288 286 286 286 286 284 283 284 285 286 283 284 285 285 284 284 283 283 283 284 285 285 285 285 284 283 283 283 285 286 286 285 284 283 283 282 282 282 283 284 284 284 283 283 283
292 291 288 287 284 284 284 290 284 285 281 283 285 282 283 283 286 288 283 285 284 286 285 284 284 285 284 285 285 285 286 284 284 284 284 284 286 287 287 286 286 285 284 283 284 283 282 282 283 283 283 283 282 281
292 287 283 282 284 282 286 283 285 284 284 282 282 280 282 284 286 283 281 282 284 286 284 283 283 283 285 285 285 284 285 285 284 286 287 285 285 286 286 286 286 286 285 285 284 283 283 283 283 283 283 282 282 282
282 281 282 280 284 282 280 281 281 281 279 281 280 281 283 285 280 280 280 281 283 282 282 282 283 282 281 282 284 284 286 285 284 284 287 287 286 286 286 286 285 285 286 285 284 284 284 284 284 283 282 282 281 280
277 281 278 279 280 280 280 278 279 279 280 279 280 283 284 281 278 277 279 281 281 281 280 280 279 280 282 282 280 281 283 285 284 284 286 286 286 285 284 284 283 284 285 285 284 284 284 284 283 282 283 282 281 281
276 277 280 283 281 280 279 281 280 279 276 276 279 279 279 275 276 278 280 279 279 279 280 281 280 279 279 280 281 282 283 284 284 284 285 285 285 285 284 283 283 283 284 284 284 283 283 284 283 282 282 283 283 283
275 274 270 274 277 279 276 277 276 275 276 277 278 275 275 275 275 277 276 277 277 278 279 281 281 281 279 279 280 281 282 284 284 284 284 285 285 285 284 284 284 281 283 283 284 283 283 283 283 282 282 282 281 281
273 275 274 270 273 275 276 275 276 276 276 276 274 275 276 275 274 274 274 275 277 277 276 275 277 278 279 280 281 283 283 282 281 279 279 280 282 283 284 283 283 283 284 283 280 281 282 282 282 282 282 282 281 281
271 275 271 271 270 271 274 275 274 276 276 276 276 276 277 273 273 274 274 274 273 273 273 274 275 275 275 275 276 279 283 282 280 278 277 277 279 281 283 283 282 283 283 283 283 281 280 281 280 281 280 280 280 280
273 273 271 272 271 275 274 275 276 276 275 275 276 274 274 272 272 273 272 273 273 273 272 272 273 274 273 273 274 275 276 279 277 277 277 278 279 280 281 282 282 282 282 281 281 282 281 280 281 280 279 278 277 279
272 269 268 266 269 274 275 272 272 272 273 273 273 273 273 272 269 271 272 272 270 269 270 270 270 270 273 275 275 276 275 274 274 273 273 274 277 277 278 279 280 280 280 279 280 279 280 280 279 277 275 274 274 273
270 270 270 269 269 268 271 270 269 269 271 271 269 269 269 268 265 269 273 273 270 269 269 270 271 272 273 275 275 275 275 275 272 271 270 270 269 271 275 276 276 276 276 276 275 275 274 274 272 271 270 270 269 269
Wind_Speed
20 21 20 19 18 18 18 17 16 16 15 14 13 12 12 10 7 3 3 4 3 2 2 5 8 8 5 5 7 1 3 9 7 8 11 13 13 10 8 13 11 14 11 11 11 14 21 16 20 23 9 10 3 12
17 19 18 18 18 18 17 17 15 15 14 13 12 10 10 13 10 7 3 3 1 1 4 4 7 10 12 11 8 3 5 6 4 5 5 4 8 8 15 13 10 5 2 7 9 8 7 12 16 9 13 20 7 10
15 16 16 16 16 16 15 14 14 13 12 10 10 10 10 11 10 9 2 4 1 2 6 10 10 13 14 14 13 8 10 13 9 8 6 5 9 8 11 12 15 12 11 11 14 12 15 10 18 11 11 16 11 13
14 14 14 14 14 14 13 12 11 10 10 9 8 8 8 8 9 9 3 4 2 1 4 3 2 7 10 11 15 16 17 9 8 5 6 7 8 9 11 16 17 14 14 15 18 19 15 9 17 11 12 13 13 9
12 12 13 13 13 12 12 12 11 10 9 8 7 7 8 9 10 5 2 1 4 3 3 6 12 13 13 13 14 15 15 13 8 6 6 11 12 11 12 15 16 13 14 9 12 16 15 13 9 7 13 15 10 13
12 12 13 13 12 12 12 11 10 10 9 8 7 7 8 11 13 4 1 5 2 3 4 4 5 8 9 9 11 15 12 11 7 5 7 10 18 11 9 14 21 17 15 14 16 15 17 18 16 16 14 15 16 12
11 12 13 12 12 12 12 11 11 12 11 11 10 11 11 9 5 1 4 4 9 5 1 5 4 4 3 6 9 8 11 6 6 4 10 14 14 13 14 19 25 21 21 20 17 15 18 17 15 15 17 19 16 17
11 12 12 11 11 11 11 10 10 10 9 9 9 8 6 2 3 4 4 5 4 4 3 4 4 5 5 5 5 5 5 5 6 8 10 12 11 10 10 19 19 19 17 15 12 12 16 16 15 16 16 16 18 19
9 10 10 9 9 10 9 9 9 8 8 7 7 5 4 3 1 3 6 3 5 4 3 4 4 3 3 6 2 3 4 5 6 6 11 7 10 9 13 14 15 16 18 16 17 16 16 16 16 16 19 21 21 17
8 9 9 8 8 9 9 9 9 8 9 7 6 2 2 1 6 5 1 2 2 4 4 6 6 6 3 4 3 3 4 5 4 6 2 4 8 17 17 18 18 14 12 11 9 11 12 11 11 16 16 15 17 14
8 9 9 9 8 9 9 10 10 10 7 4 2 1 4 6 3 3 3 5 5 4 5 4 6 7 4 5 4 3 3 3 5 3 4 4 5 4 5 8 7 6 7 9 11 15 13 13 12 13 17 13 10 10
8 8 9 9 9 10 11 12 12 8 2 3 2 1 1 3 3 4 3 2 4 3 2 4 3 4 2 3 4 4 4 3 6 3 4 5 1 3 3 4 6 9 11 12 13 14 13 12 11 11 11 13 13 8
6 8 10 10 10 11 12 13 12 5 4 3 2 1 3 4 5 5 6 5 4 5 5 5 5 4 4 4 5 3 5 7 3 4 4 3 4 5 2 4 8 9 11 13 13 12 10 11 12 11 11 9 9 10
6 6 7 10 10 11 11 12 10 5 4 2 3 4 5 5 6 5 5 6 4 4 6 5 4 4 3 5 4 5 5 3 5 5 5 3 5 4 4 5 8 11 10 11 11 10 11 10 10 9 8 8 8 10
5 4 4 7 8 9 10 11 13 4 2 3 4 5 7 7 5 5 6 7 9 8 7 3 4 5 5 4 5 4 4 6 6 4 4 4 4 4 5 7 9 9 8 8 8 7 8 8 8 8 6 7 7 7
3 3 7 10 11 10 10 11 4 1 2 4 6 5 6 6 7 6 7 8 9 6 3 2 5 4 6 5 6 8 5 5 3 3 4 4 4 5 7 7 7 8 8 8 7 8 9 8 8 7 6 7 5 2
4 4 8 8 11 12 12 3 2 5 5 6 6 7 9 10 9 7 8 7 4 3 4 4 5 4 4 5 5 5 6 5 6 5 5 6 6 7 8 8 7 8 8 8 9 8 8 7 7 4 5 5 5 5
7 4 7 7 3 6 4 5 4 5 8 9 8 7 9 8 8 7 7 4 3 3 3 3 4 4 4 5 8 5 5 6 5 5 5 5 7 6 6 9 8 8 8 8 7 8 6 7 7 3 2 2 4 5
11 7 8 8 5 3 3 5 4 4 8 6 7 7 8 6 7 7 6 5 5 2 3 4 5 5 4 3 4 4 7 7 7 6 5 3 3 6 7 7 7 5 6 6 6 5 5 4 5 4 3 2 3 3
12 14 15 12 11 4 4 4 4 4 4 3 4 7 6 4 3 1 4 4 3 2 5 5 5 4 4 6 7 7 7 5 6 7 5 2 1 3 4 5 5 6 5 4 3 3 4 1 3 3 4 3 3 4
4 6 11 7 4 5 3 3 5 4 3 4 5 3 3 4 5 4 3 4 4 3 4 2 4 5 6 5 6 6 5 4 5 5 6 6 4 4 4 3 3 4 4 4 4 3 3 4 3 3 3 5 5 6
3 3 2 5 5 5 5 6 4 2 3 4 3 5 4 3 4 3 3 5 3 2 3 4 6 7 8 8 6 6 6 7 6 5 5 5 6 4 2 2 3 3 3 4 5 4 4 4 3 3 4 5 5 5
8 5 2 3 5 7 3 6 6 6 5 3 3 4 4 3 3 4 3 1 3 2 3 4 6 7 6 6 6 6 3 6 6 4 3 4 4 3 3 2 3 3 2 3 4 4 4 3 3 3 3 3 4 5
3 3 4 5 7 5 5 6 5 4 5 5 4 5 4 4 5 4 3 3 2 2 4 6 5 5 5 4 5 5 4 5 6 5 3 4 5 1 2 2 2 2 3 2 2 3 3 3 2 3 3 4 4 4
5 7 6 9 5 7 7 6 6 6 5 5 4 3 2 4 4 4 3 4 4 5 5 6 7 6 6 5 6 7 2 4 6 7 1 3 3 2 2 1 0 1 2 3 2 2 1 0 1 1 2 3 4 4
6 3 3 6 4 4 3 4 7 7 4 4 4 1 3 3 4 3 4 4 5 6 6 6 7 8 7 7 8 8 8 6 7 6 1 3 4 4 4 3 3 3 2 3 4 3 2 1 1 2 1 4 3 3
5 1 1 2 4 4 4 1 1 2 3 3 2 1 2 4 3 5 5 7 5 6 7 6 6 7 8 9 8 8 7 6 5 4 3 2 3 3 4 5 4 4 2 2 3 4 4 3 3 1 1 2 2 1
5 7 8 10 5 3 5 3 2 1 4 4 4 4 3 6 5 4 5 6 7 7 7 7 6 7 7 8 8 7 7 6 4 3 3 3 2 0 1 1 2 3 3 3 3 2 2 3 1 2 2 1 3 1
4 6 8 6 5 3 4 5 4 4 4 4 5 4 5 5 4 5 6 6 6 6 7 7 7 8 8 8 7 6 4 6 8 9 8 6 4 3 2 0 1 2 1 1 3 5 4 3 1 1 1 2 3 2
5 7 5 4 4 3 4 5 5 6 5 5 5 6 2 4 4 5 6 6 7 7 7 7 7 7 8 9 9 9 5 1 4 5 7 7 7 7 5 2 2 1 2 3 3 3 3 2 2 3 3 3 4 4
5 4 5 4 3 4 5 6 5 5 3 3 3 4 4 4 4 5 7 7 6 6 7 8 8 8 9 10 9 9 7 7 8 8 7 7 7 7 6 4 3 3 2 3 4 4 4 3 2 3 4 4 3 5
6 3 4 6 8 7 5 5 6 3 3 3 1 3 2 5 3 3 5 7 8 8 10 10 9 10 11 9 7 6 7 6 7 8 10 7 7 7 5 4 3 3 3 3 3 3 3 5 4 7 7 8 8 9
8 5 4 4 4 4 6 6 5 3 3 1 4 4 4 5 4 5 5 4 7 8 9 9 10 11 13 10 7 7 6 4 5 7 9 9 9 8 5 4 4 4 4 4 4 5 7 10 10 10 10 10 10 10
Wind_Direction
93 94 100 103 107 106 106 110 111 114 120 130 144 146 156 155 165 202 126 209 232 220 260 201 255 239 228 229 256 57 298 224 236 243 250 255 257 263 262 284 308 301 286 241 228 239 258 316 272 265 237 349 314 287
102 102 102 102 101 107 108 107 109 111 113 124 122 130 158 165 179 229 123 193 61 282 303 329 291 264 252 253 259 215 274 302 264 271 262 312 306 280 285 283 316 291 352 305 290 293 209 242 281 304 307 311 288 298
107 106 105 106 107 108 109 115 116 118 119 124 125 133 145 166 178 225 75 78 133 294 283 248 246 240 232 243 252 240 237 237 244 241 284 280 264 294 283 290 292 304 321 295 302 295 317 357 296 274 257 298 249 250
113 114 114 112 110 109 109 107 108 114 123 129 135 145 162 176 190 222 152 193 232 217 269 282 113 241 244 241 218 227 248 246 239 268 234 253 270 277 282 288 289 290 294 287 284 287 310 268 261 325 297 272 289 248
116 118 121 120 116 116 118 119 122 126 127 126 132 150 172 182 184 187 78 263 292 285 321 306 300 276 249 229 236 226 234 242 258 250 240 256 266 277 277 277 271 273 270 273 276 299 308 299 335 321 327 318 294 287
116 118 122 121 119 117 112 112 117 120 121 121 124 138 153 158 147 155 359 178 209 226 282 290 324 271 241 229 234 233 242 236 208 239 254 250 259 261 271 270 275 296 293 285 285 293 291 297 294 284 284 286 294 273
115 122 124 121 124 129 129 124 124 120 112 103 96 115 122 142 238 124 12 50 148 189 255 279 269 164 225 237 222 220 216 233 219 232 247 257 259 262 258 264 277 281 287 286 285 305 288 277 283 297 295 286 254 247
128 131 130 129 133 135 133 129 124 120 115 109 109 120 136 183 265 222 133 135 184 254 260 274 265 251 200 243 243 232 212 218 211 237 251 258 259 256 245 252 271 283 292 297 284 283 291 293 284 276 269 266 262 266
126 129 130 129 134 139 139 142 141 137 131 124 118 140 179 253 19 63 82 190 236 291 268 206 267 309 169 264 274 242 238 230 232 236 238 262 253 234 260 278 288 306 311 317 315 304 294 291 294 297 289 279 268 254
129 135 139 137 140 146 148 151 150 145 137 152 213 121 205 73 118 128 97 184 188 217 227 260 267 245 325 281 279 275 205 246 254 227 183 232 264 265 275 277 288 301 308 319 303 296 310 302 301 291 268 255 258 257
151 153 153 153 151 154 156 156 153 142 182 211 191 185 81 130 219 218 223 223 184 222 208 248 263 249 198 241 253 250 267 249 256 179 233 232 256 263 251 238 245 250 273 279 282 277 283 285 290 294 299 297 286 276
176 173 172 174 170 168 167 166 166 215 57 43 357 111 347 231 218 236 207 233 232 270 264 228 219 233 207 232 257 242 247 253 255 142 240 254 249 115 115 209 256 248 266 289 304 311 304 289 293 289 289 295 303 347
183 185 190 186 181 178 176 178 194 87 204 222 231 157 228 182 236 234 192 203 216 185 222 215 215 237 164 217 245 253 239 238 315 230 240 277 18 105 226 287 292 304 312 325 320 307 302 298 300 295 289 278 284 268
188 194 196 187 184 182 180 185 175 190 268 245 221 239 233 180 241 224 281 341 343 252 275 271 248 225 170 192 242 244 233 258 257 239 253 21 41 36 346 333 315 323 330 315 312 311 305 308 308 300 283 286 273 262
117 125 153 177 181 177 179 178 176 217 292 250 223 242 223 244 277 284 297 294 295 305 301 291 230 220 182 226 213 250 239 241 235 259 7 38 29 318 329 327 323 325 317 310 317 314 310 315 315 315 319 304 272 240
169 238 218 172 188 188 181 171 162 39 249 243 238 248 251 261 263 255 263 280 291 315 340 213 250 218 209 214 199 217 247 242 263 13 8 349 353 345 330 323 316 318 312 311 312 317 314 315 323 322 330 347 359 48
228 256 130 187 199 198 193 148 144 208 230 221 231 235 263 277 275 278 278 300 17 313 260 259 249 218 253 226 218 223 234 302 357 353 350 360 343 337 320 313 315 319 317 317 316 319 316 319 313 338 5 11 26 51
247 220 176 211 174 143 166 192 217 225 228 231 249 235 226 249 274 271 271 276 190 225 247 265 307 238 256 262 252 308 341 353 342 357 341 358 339 329 324 320 321 318 314 318 317 311 300 329 311 2 23 69 92 80
250 277 169 170 166 147 194 193 219 252 232 243 240 250 262 268 251 265 275 269 244 193 285 250 248 251 264 312 327 347 341 331 329 326 313 130 308 316 317 318 302 298 319 317 322 328 326 339 330 329 347 336 78 101
251 240 246 259 176 195 226 201 197 251 258 242 228 251 243 246 279 185 258 258 219 203 214 226 244 317 328 345 347 325 315 324 307 305 315 70 327 293 307 324 332 320 311 332 300 318 323 323 20 5 6 32 102 104
290 260 205 214 184 197 247 224 202 217 239 241 261 253 255 248 246 253 232 182 206 228 236 315 21 351 350 332 320 316 311 325 322 320 317 313 349 307 316 333 314 345 352 357 353 13 9 22 21 24 54 65 73 72
193 86 307 190 216 202 228 216 233 110 238 252 238 226 245 233 230 190 157 213 225 67 13 343 335 327 321 329 337 326 335 316 304 291 283 278 279 282 274 350 330 0 15 11 8 10 20 28 27 62 84 88 80 88
144 175 215 243 227 211 225 169 195 200 215 227 211 227 215 208 200 166 235 165 90 56 348 333 320 293 295 302 302 295 288 301 310 310 289 266 274 291 287 316 329 324 7 31 16 28 40 22 46 60 83 93 105 109
193 228 218 232 213 217 162 195 212 225 202 220 220 229 212 192 170 223 224 95 99 97 36 2 351 341 329 323 336 352 352 322 310 295 273 285 286 210 343 0 9 20 12 11 13 29 47 51 20 65 70 82 84 95
228 210 224 229 219 208 195 184 196 214 230 216 235 237 178 161 213 218 191 110 88 53 24 2 354 1 347 339 343 345 337 337 321 313 315 306 311 273 218 199 27 3 329 303 246 200 145 156 59 104 88 79 92 98
241 168 249 337 351 280 190 206 197 224 236 219 225 120 183 227 231 203 93 64 60 38 16 3 349 338 340 354 334 334 336 333 315 293 353 344 324 321 320 264 238 181 58 356 332 311 217 159 82 354 138 133 118 128
242 117 113 41 312 293 279 20 52 324 315 292 1 295 211 229 208 81 104 33 25 14 344 337 328 323 320 322 323 325 322 317 316 328 340 6 14 8 354 346 346 61 42 352 318 307 313 207 170 144 64 68 80 35
4 22 353 331 310 336 296 299 251 126 43 1 276 228 305 12 55 50 39 8 348 332 318 313 330 328 321 313 307 308 315 316 289 272 258 241 226 219 17 15 46 6 359 1 1 345 353 10 63 158 222 182 131 170
339 351 321 316 315 305 5 346 22 64 2 334 329 337 34 64 34 7 4 349 340 341 344 339 337 335 319 322 311 289 310 325 326 313 304 308 296 193 148 167 301 268 311 50 50 14 16 6 4 255 121 119 106 151
338 354 305 301 296 312 60 7 354 338 314 317 307 290 244 104 65 28 12 6 4 1 353 340 336 339 345 340 331 320 305 1 2 343 327 324 343 334 324 266 237 224 300 283 238 148 146 190 158 175 183 178 175 154
309 302 276 287 295 7 15 329 297 274 273 311 9 304 329 106 130 61 26 7 356 354 359 352 344 348 350 343 339 336 334 39 10 356 347 320 321 329 352 11 18 1 332 304 299 284 207 208 240 148 115 91 84 100
291 311 318 291 298 322 342 332 309 281 299 274 85 350 169 196 96 72 28 7 8 2 354 343 337 335 333 332 337 345 343 342 351 349 348 338 336 350 344 348 351 347 337 322 314 308 280 222 140 103 94 86 77 80
291 281 276 298 292 318 358 337 286 289 239 308 84 24 33 15 66 41 12 15 9 350 340 332 332 319 311 320 337 334 344 4 17 16 6 7 5 355 345 358 1 8 26 51 59 69 79 89 90 93 94 92 89 87